Saranac Lake, NY

11:51 AM EDT on October 18, 2017 (GMT -0400)
Adirondack Regional

Weather History for KSLK - July, 2013

Change the Weather History Date:

Thursday, July 25, 2013

  Actual Average Record
Temperature  
Mean Temperature 51 °F 63 °F  
Max Temperature 69 °F 76 °F 87 °F (1963)
Min Temperature 33 °F 51 °F 33 °F (2013)
Degree Days  
Heating Degree Days 14 3  
Month to date heating degree days 75  
Since 1 June heating degree days 259  
Since 1 July heating degree days 75  
Cooling Degree Days 0 1  
Month to date cooling degree days 100 40  
Year to date cooling degree days 146 69  
Since 1 June cooling degree days 136 66  
Growing Degree Days 1 (Base 50)    
Moisture  
Dew Point 40 °F    
Average Humidity 69    
Maximum Humidity 100    
Minimum Humidity 37    
Precipitation  
Precipitation 0.00 in 0.14 in 0.71 in (1961)
Month to date precipitation 5.12 3.39  
Year to date precipitation 25.40 19.59  
Sea Level Pressure  
Sea Level Pressure 30.13 in    
Wind  
Wind Speed 4 mph (ENE)    
Max Wind Speed 15 mph    
Max Gust Speed 21 mph    
Visibility 10 miles    
Events      
T = Trace of Precipitation, MM = Missing Value Source: NWS Daily Summary

Daily Weather History Graph

Daily Weather History Graph

Search for Another Location

Airport or City:

Trip Planner

Search our weather history database for the weather conditions in past years. The results will help you decide how hot, cold, wet, or windy it might be!

Date:

Astronomy

Jul. 25, 2013 Rise Set
Actual Time 5:36 AM EDT 8:29 PM EDT
Civil Twilight 5:02 AM EDT 9:03 PM EDT
Nautical Twilight 4:19 AM EDT 9:46 PM EDT
Astronomical Twilight 3:27 AM EDT 10:37 PM EDT
Moon 9:56 PM EDT (7/25) 9:13 AM EDT (7/25)
Length of Visible Light 16h 01m
Length of Day
14h 52m
Waning Gibbous, 88% of the Moon is Illuminated
Jul 25
Waning Gibbous
Jul 29
Last Quarter
Aug 6
New
Aug 14
First Quarter
Aug 20
Full

Hourly Weather History & Observations

Time (EDT) Temp. Dew Point Humidity Pressure Visibility Wind Dir Wind Speed Gust Speed Precip Events Conditions
12:51 AM 39.0 °F 37.0 °F 93% 30.09 in 9.0 mi Calm Calm - N/A   Clear
1:51 AM 37.0 °F 36.0 °F 96% 30.09 in 10.0 mi Calm Calm - N/A   Partly Cloudy
2:51 AM 36.0 °F 35.1 °F 97% 30.10 in 10.0 mi Calm Calm - N/A   Clear
3:11 AM 35.6 °F 33.8 °F 93% 30.08 in 10.0 mi Calm Calm - N/A   Partly Cloudy
3:51 AM 34.0 °F 33.1 °F 96% 30.10 in 10.0 mi Calm Calm - N/A   Clear
3:59 AM 33.8 °F 33.8 °F 100% 30.08 in 10.0 mi Calm Calm - N/A   Partly Cloudy
4:51 AM 34.0 °F 33.1 °F 96% 30.11 in 10.0 mi Calm Calm - N/A   Mostly Cloudy
5:24 AM 33.8 °F 32.0 °F 93% 30.10 in 10.0 mi Calm Calm - N/A   Scattered Clouds
5:51 AM 33.1 °F 32.0 °F 96% 30.13 in 10.0 mi Calm Calm - N/A   Mostly Cloudy
6:20 AM 35.6 °F 33.8 °F 93% 30.11 in 10.0 mi Calm Calm - N/A   Scattered Clouds
6:51 AM 39.0 °F 37.9 °F 96% 30.14 in 10.0 mi Calm Calm - N/A   Clear
7:51 AM 48.9 °F 45.0 °F 86% 30.14 in 10.0 mi ENE 4.6 mph - N/A   Clear
8:51 AM 54.0 °F 44.1 °F 69% 30.15 in 10.0 mi NE 10.4 mph - N/A   Clear
9:51 AM 57.9 °F 42.1 °F 56% 30.16 in 10.0 mi ENE 11.5 mph 20.7 mph N/A   Clear
10:51 AM 60.1 °F 42.1 °F 51% 30.17 in 10.0 mi ENE 12.7 mph - N/A   Clear
11:51 AM 62.1 °F 41.0 °F 46% 30.16 in 10.0 mi Variable 5.8 mph 18.4 mph N/A   Clear
12:51 PM 64.0 °F 42.1 °F 45% 30.15 in 10.0 mi Variable 4.6 mph - N/A   Clear
1:51 PM 64.0 °F 42.1 °F 45% 30.15 in 10.0 mi East 9.2 mph - N/A   Clear
2:51 PM 66.9 °F 43.0 °F 42% 30.14 in 10.0 mi ENE 9.2 mph 16.1 mph N/A   Clear
3:51 PM 68.0 °F 44.1 °F 42% 30.14 in 10.0 mi North 4.6 mph - N/A   Clear
4:51 PM 69.1 °F 43.0 °F 39% 30.13 in 10.0 mi East 8.1 mph - N/A   Clear
5:51 PM 66.9 °F 44.1 °F 44% 30.13 in 10.0 mi ENE 6.9 mph - N/A   Clear
6:51 PM 66.0 °F 46.0 °F 48% 30.14 in 10.0 mi East 11.5 mph - N/A   Clear
7:51 PM 62.1 °F 48.0 °F 60% 30.13 in 10.0 mi ENE 6.9 mph - N/A   Clear
8:51 PM 54.0 °F 48.0 °F 80% 30.15 in 10.0 mi Calm Calm - N/A   Clear
9:51 PM 48.9 °F 46.9 °F 93% 30.16 in 10.0 mi Calm Calm - N/A   Clear
10:51 PM 46.0 °F 45.0 °F 96% 30.16 in 10.0 mi Calm Calm - N/A   Clear
11:51 PM 43.0 °F 42.1 °F 97% 30.15 in 10.0 mi Calm Calm - N/A   Clear